Tracking 35280 objects as of 7-Sep-2026
HD Live streaming from Space Station
objects crossing your sky now

COSMOS 667 DEB


COSMOS 667 DEB is no longer on orbit


NORAD ID: 7408
Int'l Code: 1974-057D
Launch date: July 25, 1974
Source: Commonwealth of Independent States (former USSR) (CIS)
Launch site: TYURATAM MISSILE AND SPACE COMPLEX (TTMTR)
Decay date: 1974-08-18

Note: This is SATELLITE DEBRIS
Your satellite tracking list
Your tracking list is empty




NASA's NSSDC Master Catalog

Two Line Element Set (TLE):
1 07408U 74057  D 74218.93064212  .03795935 +86138-4 +87277-4 0  9997
2 07408 064.9656 036.7747 0053725 056.7413 303.8849 16.26632463002049
Source of the keplerian elements: AFSPC